Time,TemperatureF,DewpointF,PressureIn,WindDirection,WindDirectionDegrees,WindSpeedMPH,WindSpeedGustMPH,Humidity,HourlyPrecipIn,Conditions,Clouds,dailyrainin,SoftwareType,DateUTC
2013-04-27 00:00:00,52.0,39.8,30.28,SW,215,1.0,1.0,63,16.25,,---,0.00,VWS V14.01,2013-04-27 04:00:00,
2013-04-27 00:01:00,52.0,39.8,30.28,SW,215,1.0,1.0,63,16.25,,---,0.00,VWS V14.01,2013-04-27 04:01:00,
2013-04-27 00:06:00,51.9,39.7,30.27,SW,222,0.0,0.0,63,16.25,,---,0.00,VWS V14.01,2013-04-27 04:06:00,
2013-04-27 00:11:00,51.8,39.6,30.27,SW,228,0.0,0.0,63,16.25,,---,0.00,VWS V14.01,2013-04-27 04:11:00,
2013-04-27 00:16:00,51.8,39.6,30.27,SSW,210,0.0,0.0,63,16.25,,---,0.00,VWS V14.01,2013-04-27 04:16:00,
2013-04-27 00:21:00,51.6,39.4,30.28,SSW,195,0.0,1.0,63,16.25,,---,0.00,VWS V14.01,2013-04-27 04:21:00,
2013-04-27 00:26:00,51.5,39.3,30.28,SW,225,0.0,0.0,63,16.25,,---,0.00,VWS V14.01,2013-04-27 04:26:00,
2013-04-27 00:31:00,51.4,39.7,30.28,SW,229,1.0,1.0,64,16.25,,---,0.00,VWS V14.01,2013-04-27 04:31:00,
2013-04-27 00:36:00,51.4,39.7,30.28,SW,228,0.0,0.0,64,16.25,,---,0.00,VWS V14.01,2013-04-27 04:36:00,
2013-04-27 00:41:00,51.3,39.5,30.28,SW,229,0.0,0.0,64,16.25,,---,0.00,VWS V14.01,2013-04-27 04:41:00,
2013-04-27 00:46:00,51.3,39.5,30.28,SW,219,0.0,1.0,64,16.25,,---,0.00,VWS V14.01,2013-04-27 04:46:00,
2013-04-27 00:51:00,51.2,39.5,30.28,SSW,203,0.0,0.0,64,16.25,,---,0.00,VWS V14.01,2013-04-27 04:51:00,
2013-04-27 00:56:00,51.2,39.5,30.28,South,187,0.0,0.0,64,16.25,,---,0.00,VWS V14.01,2013-04-27 04:56:00,
2013-04-27 01:01:00,51.2,39.5,30.28,WSW,238,0.0,3.0,64,16.25,,---,0.00,VWS V14.01,2013-04-27 05:01:00,
2013-04-27 01:06:00,51.1,39.8,30.28,SW,222,0.0,2.0,65,16.25,,---,0.00,VWS V14.01,2013-04-27 05:06:00,
2013-04-27 01:11:00,50.9,39.6,30.28,SW,224,0.0,1.0,65,16.25,,---,0.00,VWS V14.01,2013-04-27 05:11:00,
2013-04-27 01:16:00,50.7,39.4,30.28,SW,225,0.0,1.0,65,16.25,,---,0.00,VWS V14.01,2013-04-27 05:16:00,
2013-04-27 01:21:00,50.6,39.7,30.28,SW,228,0.0,2.0,66,16.25,,---,0.00,VWS V14.01,2013-04-27 05:21:00,
2013-04-27 01:26:00,50.6,39.7,30.28,SW,228,0.0,0.0,66,16.25,,---,0.00,VWS V14.01,2013-04-27 05:26:00,
2013-04-27 01:31:00,50.7,39.4,30.28,SW,232,0.0,2.0,65,16.25,,---,0.00,VWS V14.01,2013-04-27 05:31:00,
2013-04-27 01:36:00,50.7,39.4,30.28,SW,221,1.0,1.0,65,16.25,,---,0.00,VWS V14.01,2013-04-27 05:36:00,
2013-04-27 01:41:00,50.5,39.6,30.28,SW,221,0.0,1.0,66,16.25,,---,0.00,VWS V14.01,2013-04-27 05:41:00,
2013-04-27 01:46:00,50.2,39.3,30.28,SW,221,0.0,1.0,66,16.25,,---,0.00,VWS V14.01,2013-04-27 05:46:00,
2013-04-27 01:51:00,49.9,39.4,30.28,SW,229,0.0,2.0,67,16.25,,---,0.00,VWS V14.01,2013-04-27 05:51:00,
2013-04-27 01:56:00,49.9,39.4,30.28,SW,229,1.0,1.0,67,16.25,,---,0.00,VWS V14.01,2013-04-27 05:56:00,
2013-04-27 02:06:00,49.3,39.2,30.28,SW,229,0.0,0.0,68,16.25,,---,0.00,VWS V14.01,2013-04-27 06:06:00,
2013-04-27 02:11:00,49.2,39.5,30.28,SW,229,1.0,2.0,69,16.25,,---,0.00,VWS V14.01,2013-04-27 06:11:00,
2013-04-27 02:16:00,49.2,39.5,30.28,SW,229,0.0,1.0,69,16.25,,---,0.00,VWS V14.01,2013-04-27 06:16:00,
2013-04-27 02:21:00,48.9,39.2,30.28,SW,229,0.0,0.0,69,16.25,,---,0.00,VWS V14.01,2013-04-27 06:21:00,
2013-04-27 02:26:00,48.7,39.4,30.28,SW,229,0.0,0.0,70,16.25,,---,0.00,VWS V14.01,2013-04-27 06:26:00,
2013-04-27 02:31:00,48.5,39.2,30.28,SW,229,0.0,0.0,70,16.25,,---,0.00,VWS V14.01,2013-04-27 06:31:00,
2013-04-27 02:36:00,48.1,38.8,30.28,SW,229,0.0,0.0,70,16.25,,---,0.00,VWS V14.01,2013-04-27 06:36:00,
2013-04-27 02:41:00,48.0,39.1,30.28,SW,229,0.0,0.0,71,16.25,,---,0.00,VWS V14.01,2013-04-27 06:41:00,
2013-04-27 02:46:00,48.0,39.1,30.28,SW,229,0.0,0.0,71,16.25,,---,0.00,VWS V14.01,2013-04-27 06:46:00,
2013-04-27 02:51:00,48.4,39.1,30.28,SW,228,0.0,2.0,70,16.25,,---,0.00,VWS V14.01,2013-04-27 06:51:00,
2013-04-27 02:56:00,48.6,39.3,30.28,SW,225,0.0,1.0,70,16.25,,---,0.00,VWS V14.01,2013-04-27 06:56:00,
2013-04-27 03:01:00,48.5,39.2,30.28,SW,235,1.0,2.0,70,16.25,,---,0.00,VWS V14.01,2013-04-27 07:01:00,
2013-04-27 03:06:00,48.4,39.1,30.28,WSW,239,1.0,1.0,70,16.25,,---,0.00,VWS V14.01,2013-04-27 07:06:00,
2013-04-27 03:11:00,48.1,39.2,30.28,WSW,239,0.0,1.0,71,16.25,,---,0.00,VWS V14.01,2013-04-27 07:11:00,
2013-04-27 03:16:00,48.1,39.2,30.28,SW,231,2.0,2.0,71,16.25,,---,0.00,VWS V14.01,2013-04-27 07:16:00,
2013-04-27 03:21:00,48.0,39.1,30.27,SW,229,0.0,2.0,71,16.25,,---,0.00,VWS V14.01,2013-04-27 07:21:00,
2013-04-27 03:26:00,48.0,39.1,30.27,SW,232,0.0,2.0,71,16.25,,---,0.00,VWS V14.01,2013-04-27 07:26:00,
2013-04-27 03:31:00,47.7,39.1,30.27,SW,233,1.0,1.0,72,16.25,,---,0.00,VWS V14.01,2013-04-27 07:31:00,
2013-04-27 03:36:00,47.3,38.7,30.27,WSW,239,2.0,3.0,72,16.25,,---,0.00,VWS V14.01,2013-04-27 07:36:00,
2013-04-27 03:41:00,47.5,38.9,30.27,SW,236,2.0,2.0,72,16.25,,---,0.00,VWS V14.01,2013-04-27 07:41:00,
2013-04-27 03:46:00,48.0,39.1,30.27,SW,226,1.0,4.0,71,16.25,,---,0.00,VWS V14.01,2013-04-27 07:46:00,
2013-04-27 03:51:00,48.1,39.2,30.27,SW,228,0.0,3.0,71,16.25,,---,0.00,VWS V14.01,2013-04-27 07:51:00,
2013-04-27 03:56:00,48.3,39.3,30.27,SW,218,2.0,4.0,71,16.25,,---,0.00,VWS V14.01,2013-04-27 07:56:00,
2013-04-27 04:01:00,48.3,39.3,30.27,WSW,237,3.0,5.0,71,16.25,,---,0.00,VWS V14.01,2013-04-27 08:01:00,
2013-04-27 04:06:00,48.6,39.3,30.27,SW,233,2.0,5.0,70,16.25,,---,0.00,VWS V14.01,2013-04-27 08:06:00,
2013-04-27 04:11:00,48.7,39.4,30.27,SSW,200,2.0,6.0,70,16.25,,---,0.00,VWS V14.01,2013-04-27 08:11:00,
2013-04-27 04:16:00,48.8,39.5,30.27,SW,229,3.0,5.0,70,16.25,,---,0.00,VWS V14.01,2013-04-27 08:16:00,
2013-04-27 04:21:00,48.8,39.5,30.27,SW,231,1.0,5.0,70,16.25,,---,0.00,VWS V14.01,2013-04-27 08:21:00,
2013-04-27 04:26:00,48.7,39.4,30.27,SW,224,1.0,3.0,70,16.25,,---,0.00,VWS V14.01,2013-04-27 08:26:00,
2013-04-27 04:31:00,48.6,39.3,30.27,SW,230,0.0,4.0,70,16.25,,---,0.00,VWS V14.01,2013-04-27 08:31:00,
2013-04-27 04:36:00,48.4,39.4,30.27,SW,218,2.0,4.0,71,16.25,,---,0.00,VWS V14.01,2013-04-27 08:36:00,
2013-04-27 04:41:00,48.3,39.3,30.27,SW,229,0.0,2.0,71,16.25,,---,0.00,VWS V14.01,2013-04-27 08:41:00,
2013-04-27 04:46:00,48.1,39.2,30.27,South,181,2.0,2.0,71,16.25,,---,0.00,VWS V14.01,2013-04-27 08:46:00,
2013-04-27 04:51:00,47.9,39.3,30.27,SW,225,1.0,1.0,72,16.25,,---,0.00,VWS V14.01,2013-04-27 08:51:00,
2013-04-27 04:56:00,47.9,39.3,30.27,SW,226,1.0,3.0,72,16.25,,---,0.00,VWS V14.01,2013-04-27 08:56:00,
2013-04-27 05:01:00,48.0,39.4,30.27,WSW,243,0.0,2.0,72,16.25,,---,0.00,VWS V14.01,2013-04-27 09:01:00,
2013-04-27 05:06:00,47.6,39.0,30.27,WSW,243,0.0,1.0,72,16.25,,---,0.00,VWS V14.01,2013-04-27 09:06:00,
2013-04-27 05:11:00,47.0,38.8,30.27,WSW,243,0.0,0.0,73,16.25,,---,0.00,VWS V14.01,2013-04-27 09:11:00,
2013-04-27 05:16:00,46.6,38.8,30.27,WSW,243,0.0,1.0,74,16.25,,---,0.00,VWS V14.01,2013-04-27 09:16:00,
2013-04-27 05:21:00,46.1,38.3,30.27,WSW,243,0.0,0.0,74,16.25,,---,0.00,VWS V14.01,2013-04-27 09:21:00,
2013-04-27 05:26:00,45.5,38.0,30.27,WSW,243,0.0,0.0,75,16.25,,---,0.00,VWS V14.01,2013-04-27 09:26:00,
2013-04-27 05:30:00,44.8,38.0,30.26,WSW,243,0.0,0.0,77,16.25,,---,0.00,VWS V14.01,2013-04-27 09:30:00,
2013-04-27 05:35:00,44.3,37.9,30.27,WSW,243,0.0,0.0,78,16.25,,---,0.00,VWS V14.01,2013-04-27 09:35:00,
2013-04-27 05:41:00,44.0,37.9,30.26,WSW,243,0.0,0.0,79,16.25,,---,0.00,VWS V14.01,2013-04-27 09:41:00,
2013-04-27 05:45:00,44.0,38.2,30.26,WSW,243,0.0,0.0,80,16.25,,---,0.00,VWS V14.01,2013-04-27 09:45:00,
2013-04-27 05:50:00,44.1,38.0,30.26,WSW,243,0.0,0.0,79,16.25,,---,0.00,VWS V14.01,2013-04-27 09:50:00,
2013-04-27 05:55:00,44.0,37.9,30.26,WSW,243,0.0,0.0,79,16.25,,---,0.00,VWS V14.01,2013-04-27 09:55:00,
2013-04-27 06:00:00,43.6,37.5,30.26,WSW,243,0.0,0.0,79,16.25,,---,0.00,VWS V14.01,2013-04-27 10:00:00,
2013-04-27 06:05:00,43.1,37.4,30.26,WSW,243,0.0,0.0,80,16.25,,---,0.00,VWS V14.01,2013-04-27 10:05:00,
2013-04-27 06:10:00,42.8,37.7,30.26,WSW,243,0.0,0.0,82,16.25,,---,0.00,VWS V14.01,2013-04-27 10:10:00,
2013-04-27 06:15:00,42.5,37.7,30.26,WSW,243,0.0,0.0,83,16.25,,---,0.00,VWS V14.01,2013-04-27 10:15:00,
2013-04-27 06:20:00,42.1,37.3,30.26,WSW,243,0.0,0.0,83,16.25,,---,0.00,VWS V14.01,2013-04-27 10:20:00,
2013-04-27 06:25:00,41.6,36.8,30.26,WSW,243,0.0,0.0,83,16.25,,---,0.00,VWS V14.01,2013-04-27 10:25:00,
2013-04-27 06:30:00,41.1,37.2,30.26,WSW,243,0.0,0.0,86,16.25,,---,0.00,VWS V14.01,2013-04-27 10:30:00,
2013-04-27 06:35:00,40.8,37.2,30.26,WSW,243,0.0,0.0,87,16.25,,---,0.00,VWS V14.01,2013-04-27 10:35:00,
2013-04-27 06:40:00,40.6,37.0,30.26,WSW,243,0.0,0.0,87,16.25,,---,0.00,VWS V14.01,2013-04-27 10:40:00,
2013-04-27 06:45:00,40.3,36.8,30.26,WSW,243,0.0,0.0,87,16.25,,---,0.00,VWS V14.01,2013-04-27 10:45:00,
2013-04-27 06:50:00,40.0,36.7,30.26,WSW,243,0.0,0.0,88,16.25,,---,0.00,VWS V14.01,2013-04-27 10:50:00,
2013-04-27 06:55:00,40.1,37.4,30.27,WSW,243,0.0,0.0,90,16.25,,---,0.00,VWS V14.01,2013-04-27 10:55:00,
2013-04-27 07:00:00,40.0,37.3,30.27,WSW,243,0.0,0.0,90,16.25,,---,0.00,VWS V14.01,2013-04-27 11:00:00,
2013-04-27 07:05:00,40.0,37.6,30.27,WSW,243,0.0,0.0,91,16.25,,---,0.00,VWS V14.01,2013-04-27 11:05:00,
2013-04-27 07:10:00,40.0,37.6,30.27,WSW,243,0.0,0.0,91,16.25,,---,0.00,VWS V14.01,2013-04-27 11:10:00,
2013-04-27 07:15:00,40.1,38.0,30.27,WSW,243,0.0,0.0,92,16.25,,---,0.00,VWS V14.01,2013-04-27 11:15:00,
2013-04-27 07:20:00,40.4,38.3,30.27,WSW,243,0.0,0.0,92,16.25,,---,0.00,VWS V14.01,2013-04-27 11:20:00,
2013-04-27 07:25:00,40.9,38.8,30.27,WSW,243,0.0,0.0,92,16.25,,---,0.00,VWS V14.01,2013-04-27 11:25:00,
2013-04-27 07:30:00,41.3,38.9,30.27,WSW,243,0.0,0.0,91,16.25,,---,0.00,VWS V14.01,2013-04-27 11:30:00,
2013-04-27 07:35:00,41.7,38.7,30.27,WSW,243,0.0,0.0,89,16.25,,---,0.00,VWS V14.01,2013-04-27 11:35:00,
2013-04-27 07:40:00,42.6,39.3,30.27,WSW,243,0.0,0.0,88,16.25,,---,0.00,VWS V14.01,2013-04-27 11:40:00,
2013-04-27 07:45:00,43.6,39.4,30.28,WSW,243,0.0,0.0,85,16.25,,---,0.00,VWS V14.01,2013-04-27 11:45:00,
2013-04-27 07:50:00,44.3,39.8,30.28,South,177,0.0,1.0,84,16.25,,---,0.00,VWS V14.01,2013-04-27 11:50:00,
2013-04-27 07:55:00,45.0,40.2,30.27,South,177,0.0,0.0,83,16.25,,---,0.00,VWS V14.01,2013-04-27 11:55:00,
2013-04-27 08:00:00,45.6,40.1,30.27,South,177,0.0,0.0,81,16.25,,---,0.00,VWS V14.01,2013-04-27 12:00:00,
2013-04-27 08:05:00,46.2,40.1,30.27,SW,229,1.0,1.0,79,16.25,,---,0.00,VWS V14.01,2013-04-27 12:05:00,
2013-04-27 08:10:00,47.1,40.3,30.27,SW,227,0.0,2.0,77,16.25,,---,0.00,VWS V14.01,2013-04-27 12:10:00,
2013-04-27 08:15:00,47.9,40.4,30.28,WSW,240,1.0,2.0,75,16.25,,---,0.00,VWS V14.01,2013-04-27 12:15:00,
2013-04-27 08:20:00,48.7,40.8,30.27,SW,229,1.0,3.0,74,16.25,,---,0.00,VWS V14.01,2013-04-27 12:20:00,
2013-04-27 08:25:00,49.4,41.1,30.27,SW,228,1.0,3.0,73,16.25,,---,0.00,VWS V14.01,2013-04-27 12:25:00,
2013-04-27 08:30:00,50.1,41.1,30.27,SSW,212,2.0,4.0,71,16.25,,---,0.00,VWS V14.01,2013-04-27 12:30:00,
2013-04-27 08:35:00,50.8,41.8,30.27,SW,225,2.0,2.0,71,16.25,,---,0.00,VWS V14.01,2013-04-27 12:35:00,
2013-04-27 08:40:00,51.5,41.7,30.27,SSW,212,2.0,5.0,69,16.25,,---,0.00,VWS V14.01,2013-04-27 12:40:00,
2013-04-27 08:45:00,52.3,42.1,30.27,SW,216,1.0,2.0,68,16.25,,---,0.00,VWS V14.01,2013-04-27 12:45:00,
2013-04-27 08:50:00,53.0,42.3,30.27,SW,216,0.0,4.0,67,16.25,,---,0.00,VWS V14.01,2013-04-27 12:50:00,
2013-04-27 08:55:00,53.6,42.9,30.27,SW,228,0.0,3.0,67,16.25,,---,0.00,VWS V14.01,2013-04-27 12:55:00,
2013-04-27 09:00:00,54.1,43.0,30.27,SW,221,2.0,4.0,66,16.25,,---,0.00,VWS V14.01,2013-04-27 13:00:00,
2013-04-27 09:05:00,54.4,42.9,30.27,SW,231,6.0,8.0,65,16.25,,---,0.00,VWS V14.01,2013-04-27 13:05:00,
2013-04-27 09:10:00,54.4,42.9,30.27,SW,219,3.0,5.0,65,16.25,,---,0.00,VWS V14.01,2013-04-27 13:10:00,
2013-04-27 09:15:00,54.9,43.4,30.26,SW,228,0.0,4.0,65,16.25,,---,0.00,VWS V14.01,2013-04-27 13:15:00,
2013-04-27 09:20:00,55.8,43.8,30.26,SW,218,0.0,2.0,64,16.25,,---,0.00,VWS V14.01,2013-04-27 13:20:00,
2013-04-27 09:25:00,56.3,43.9,30.26,SW,225,0.0,3.0,63,16.25,,---,0.00,VWS V14.01,2013-04-27 13:25:00,
2013-04-27 09:30:00,56.6,44.2,30.26,SSW,211,0.0,3.0,63,16.25,,---,0.00,VWS V14.01,2013-04-27 13:30:00,
2013-04-27 09:35:00,57.5,44.6,30.26,SSW,195,5.0,6.0,62,16.25,,---,0.00,VWS V14.01,2013-04-27 13:35:00,
2013-04-27 09:40:00,57.4,44.1,30.26,SW,226,3.0,8.0,61,16.25,,---,0.00,VWS V14.01,2013-04-27 13:40:00,
2013-04-27 09:48:00,57.0,44.5,30.25,SW,229,5.0,8.0,63,16.25,,---,0.00,VWS V14.01,2013-04-27 13:48:00,
2013-04-27 09:53:00,57.4,44.5,30.25,SW,222,1.0,6.0,62,16.25,,---,0.00,VWS V14.01,2013-04-27 13:53:00,
2013-04-27 09:58:00,58.0,44.6,30.25,SW,233,1.0,6.0,61,16.25,,---,0.00,VWS V14.01,2013-04-27 13:58:00,
2013-04-27 10:03:00,58.5,44.7,30.25,SW,225,4.0,5.0,60,16.25,,---,0.00,VWS V14.01,2013-04-27 14:03:00,
2013-04-27 10:08:00,58.5,44.7,30.25,SSW,205,2.0,7.0,60,16.25,,---,0.00,VWS V14.01,2013-04-27 14:08:00,
2013-04-27 10:13:00,59.1,46.1,30.25,ESE,120,0.0,3.0,62,16.25,,---,0.00,VWS V14.01,2013-04-27 14:13:00,
2013-04-27 10:18:00,59.9,46.4,30.25,SW,214,1.0,2.0,61,16.25,,---,0.00,VWS V14.01,2013-04-27 14:18:00,
2013-04-27 10:23:00,60.9,46.0,30.25,SSW,195,2.0,2.0,58,16.25,,---,0.00,VWS V14.01,2013-04-27 14:23:00,
2013-04-27 10:28:00,60.9,46.0,30.25,SW,231,6.0,8.0,58,16.25,,---,0.00,VWS V14.01,2013-04-27 14:28:00,
2013-04-27 10:33:00,60.1,45.7,30.24,SSW,195,3.0,8.0,59,16.25,,---,0.00,VWS V14.01,2013-04-27 14:33:00,
2013-04-27 10:38:00,60.1,45.3,30.24,SSE,149,0.0,7.0,58,16.25,,---,0.00,VWS V14.01,2013-04-27 14:38:00,
2013-04-27 10:43:00,60.6,45.3,30.24,SW,229,1.0,6.0,57,16.25,,---,0.00,VWS V14.01,2013-04-27 14:43:00,
2013-04-27 10:48:00,61.2,45.9,30.24,WSW,246,0.0,3.0,57,16.25,,---,0.00,VWS V14.01,2013-04-27 14:48:00,
2013-04-27 10:53:00,61.9,45.6,30.24,SSW,200,0.0,2.0,55,16.25,,---,0.00,VWS V14.01,2013-04-27 14:53:00,
2013-04-27 10:58:00,62.1,45.3,30.24,SW,217,1.0,2.0,54,16.25,,---,0.00,VWS V14.01,2013-04-27 14:58:00,
2013-04-27 11:03:00,62.8,46.4,30.23,ESE,105,4.0,4.0,55,16.25,,---,0.00,VWS V14.01,2013-04-27 15:03:00,
2013-04-27 11:08:00,63.1,46.2,30.23,East,99,2.0,2.0,54,16.25,,---,0.00,VWS V14.01,2013-04-27 15:08:00,
2013-04-27 11:13:00,63.4,46.5,30.23,NE,50,1.0,6.0,54,16.25,,---,0.00,VWS V14.01,2013-04-27 15:13:00,
2013-04-27 11:18:00,63.9,46.5,30.23,SSE,155,1.0,2.0,53,16.25,,---,0.00,VWS V14.01,2013-04-27 15:18:00,
2013-04-27 11:23:00,63.9,46.0,30.23,SW,221,1.0,3.0,52,16.25,,---,0.00,VWS V14.01,2013-04-27 15:23:00,
2013-04-27 11:28:00,64.2,45.7,30.23,East,96,1.0,4.0,51,16.25,,---,0.00,VWS V14.01,2013-04-27 15:28:00,
2013-04-27 11:33:00,64.4,46.4,30.23,ENE,74,2.0,3.0,52,16.25,,---,0.00,VWS V14.01,2013-04-27 15:33:00,
2013-04-27 11:38:00,64.7,46.7,30.23,SE,132,5.0,5.0,52,16.25,,---,0.00,VWS V14.01,2013-04-27 15:38:00,
2013-04-27 11:43:00,64.6,46.1,30.22,SSE,147,0.0,5.0,51,16.25,,---,0.00,VWS V14.01,2013-04-27 15:43:00,
2013-04-27 11:48:00,64.8,46.3,30.22,West,266,1.0,5.0,51,16.25,,---,0.00,VWS V14.01,2013-04-27 15:48:00,
2013-04-27 11:53:00,64.8,45.7,30.22,East,100,3.0,5.0,50,16.25,,---,0.00,VWS V14.01,2013-04-27 15:53:00,
2013-04-27 11:58:00,64.8,46.3,30.22,ENE,72,1.0,3.0,51,16.25,,---,0.00,VWS V14.01,2013-04-27 15:58:00,
2013-04-27 12:03:00,65.4,46.3,30.22,ESE,116,2.0,5.0,50,16.25,,---,0.00,VWS V14.01,2013-04-27 16:03:00,
2013-04-27 12:08:00,65.5,45.8,30.22,East,84,0.0,5.0,49,16.25,,---,0.00,VWS V14.01,2013-04-27 16:08:00,
2013-04-27 12:13:00,65.0,46.5,30.22,ESE,109,3.0,5.0,51,16.25,,---,0.00,VWS V14.01,2013-04-27 16:13:00,
2013-04-27 12:18:00,64.9,45.8,30.22,ENE,60,1.0,2.0,50,16.25,,---,0.00,VWS V14.01,2013-04-27 16:18:00,
2013-04-27 12:23:00,65.7,46.6,30.22,SW,235,0.0,3.0,50,16.25,,---,0.00,VWS V14.01,2013-04-27 16:23:00,
2013-04-27 12:28:00,66.3,46.0,30.22,SSE,156,0.0,3.0,48,16.25,,---,0.00,VWS V14.01,2013-04-27 16:28:00,
2013-04-27 12:33:00,66.7,45.8,30.22,ESE,122,0.0,3.0,47,16.25,,---,0.00,VWS V14.01,2013-04-27 16:33:00,
2013-04-27 12:38:00,66.3,46.0,30.22,NE,56,2.0,7.0,48,16.25,,---,0.00,VWS V14.01,2013-04-27 16:38:00,
2013-04-27 12:43:00,65.8,44.5,30.21,SSW,203,2.0,11.0,46,16.25,,---,0.00,VWS V14.01,2013-04-27 16:43:00,
2013-04-27 12:48:00,65.9,44.6,30.21,SW,219,1.0,9.0,46,16.25,,---,0.00,VWS V14.01,2013-04-27 16:48:00,
2013-04-27 12:53:00,66.2,44.8,30.21,SE,124,2.0,6.0,46,16.25,,---,0.00,VWS V14.01,2013-04-27 16:53:00,
2013-04-27 12:58:00,66.1,44.7,30.20,ESE,103,4.0,4.0,46,16.25,,---,0.00,VWS V14.01,2013-04-27 16:58:00,
2013-04-27 13:03:00,66.4,45.6,30.20,SSE,165,3.0,4.0,47,16.25,,---,0.00,VWS V14.01,2013-04-27 17:03:00,
2013-04-27 13:08:00,66.8,45.4,30.20,SSE,148,0.0,5.0,46,16.25,,---,0.00,VWS V14.01,2013-04-27 17:08:00,
2013-04-27 13:13:00,66.0,45.2,30.20,SSW,211,1.0,5.0,47,16.25,,---,0.00,VWS V14.01,2013-04-27 17:13:00,
2013-04-27 13:18:00,66.8,45.4,30.20,East,99,1.0,3.0,46,16.25,,---,0.00,VWS V14.01,2013-04-27 17:18:00,
2013-04-27 13:23:00,66.9,44.9,30.20,SSW,212,0.0,4.0,45,16.25,,---,0.00,VWS V14.01,2013-04-27 17:23:00,
2013-04-27 13:28:00,67.5,45.4,30.20,South,181,0.0,7.0,45,16.25,,---,0.00,VWS V14.01,2013-04-27 17:28:00,
2013-04-27 13:33:00,67.5,44.2,30.19,WSW,242,0.0,4.0,43,16.25,,---,0.00,VWS V14.01,2013-04-27 17:33:00,
2013-04-27 13:38:00,67.2,42.7,30.19,ESE,110,1.0,5.0,41,16.25,,---,0.00,VWS V14.01,2013-04-27 17:38:00,
2013-04-27 13:43:00,67.5,43.6,30.19,East,94,1.0,5.0,42,16.25,,---,0.00,VWS V14.01,2013-04-27 17:43:00,
2013-04-27 13:48:00,67.8,42.6,30.19,East,86,5.0,5.0,40,16.25,,---,0.00,VWS V14.01,2013-04-27 17:48:00,
2013-04-27 13:53:00,67.6,43.1,30.19,SE,134,1.0,4.0,41,16.25,,---,0.00,VWS V14.01,2013-04-27 17:53:00,
2013-04-27 13:58:00,68.6,42.7,30.19,SE,139,2.0,3.0,39,16.25,,---,0.00,VWS V14.01,2013-04-27 17:58:00,
2013-04-27 14:03:00,68.9,43.6,30.19,ESE,115,1.0,4.0,40,16.25,,---,0.00,VWS V14.01,2013-04-27 18:03:00,
2013-04-27 14:08:00,68.6,42.0,30.19,WNW,295,1.0,4.0,38,16.25,,---,0.00,VWS V14.01,2013-04-27 18:08:00,
2013-04-27 14:13:00,68.6,42.7,30.18,ESE,111,4.0,5.0,39,16.25,,---,0.00,VWS V14.01,2013-04-27 18:13:00,
2013-04-27 14:18:00,68.4,43.2,30.18,ESE,105,2.0,5.0,40,16.25,,---,0.00,VWS V14.01,2013-04-27 18:18:00,
2013-04-27 14:28:00,68.5,41.2,30.18,WSW,243,2.0,11.0,37,16.25,,---,0.00,VWS V14.01,2013-04-27 18:28:00,
2013-04-27 14:33:00,69.1,40.3,30.18,SSW,213,4.0,6.0,35,16.25,,---,0.00,VWS V14.01,2013-04-27 18:33:00,
2013-04-27 14:38:00,69.2,40.4,30.18,East,97,2.0,4.0,35,16.25,,---,0.00,VWS V14.01,2013-04-27 18:38:00,
2013-04-27 14:43:00,69.6,42.2,30.18,SE,129,1.0,2.0,37,16.25,,---,0.00,VWS V14.01,2013-04-27 18:43:00,
2013-04-27 14:48:00,69.9,41.0,30.17,ESE,122,6.0,7.0,35,16.25,,---,0.00,VWS V14.01,2013-04-27 18:48:00,
2013-04-27 14:53:00,69.4,41.3,30.17,SW,235,1.0,4.0,36,16.25,,---,0.00,VWS V14.01,2013-04-27 18:53:00,
2013-04-27 14:58:00,69.7,40.8,30.17,ESE,107,1.0,3.0,35,16.25,,---,0.00,VWS V14.01,2013-04-27 18:58:00,
2013-04-27 15:03:00,70.1,41.9,30.17,SE,145,1.0,4.0,36,16.25,,---,0.00,VWS V14.01,2013-04-27 19:03:00,
2013-04-27 15:08:00,70.2,39.8,30.17,WSW,239,7.0,10.0,33,16.25,,---,0.00,VWS V14.01,2013-04-27 19:08:00,
2013-04-27 15:13:00,69.8,40.9,30.17,East,82,2.0,2.0,35,16.25,,---,0.00,VWS V14.01,2013-04-27 19:13:00,
2013-04-27 15:18:00,70.4,41.5,30.17,ESE,103,1.0,6.0,35,16.25,,---,0.00,VWS V14.01,2013-04-27 19:18:00,
2013-04-27 15:23:00,70.7,41.0,30.16,SE,135,1.0,4.0,34,16.25,,---,0.00,VWS V14.01,2013-04-27 19:23:00,
2013-04-27 15:28:00,70.6,40.9,30.16,SE,127,0.0,4.0,34,16.25,,---,0.00,VWS V14.01,2013-04-27 19:28:00,
2013-04-27 15:33:00,70.3,40.6,30.16,East,91,1.0,3.0,34,16.25,,---,0.00,VWS V14.01,2013-04-27 19:33:00,
2013-04-27 15:38:00,70.8,39.5,30.16,SE,138,0.0,3.0,32,16.25,,---,0.00,VWS V14.01,2013-04-27 19:38:00,
2013-04-27 15:43:00,70.7,39.4,30.15,ESE,115,3.0,7.0,32,16.25,,---,0.00,VWS V14.01,2013-04-27 19:43:00,
2013-04-27 15:48:00,70.8,41.1,30.15,ESE,117,2.0,3.0,34,16.25,,---,0.00,VWS V14.01,2013-04-27 19:48:00,
2013-04-27 15:53:00,71.2,41.4,30.15,ENE,58,1.0,4.0,34,16.25,,---,0.00,VWS V14.01,2013-04-27 19:53:00,
2013-04-27 15:58:00,71.1,39.8,30.15,SW,222,3.0,4.0,32,16.25,,---,0.00,VWS V14.01,2013-04-27 19:58:00,
2013-04-27 16:03:00,71.1,42.1,30.15,West,269,2.0,2.0,35,16.25,,---,0.00,VWS V14.01,2013-04-27 20:03:00,
2013-04-27 16:08:00,71.1,40.6,30.14,SE,139,3.0,7.0,33,16.25,,---,0.00,VWS V14.01,2013-04-27 20:08:00,
2013-04-27 16:13:00,71.1,40.6,30.13,SE,144,2.0,7.0,33,16.25,,---,0.00,VWS V14.01,2013-04-27 20:13:00,
2013-04-27 16:18:00,70.9,40.4,30.13,SSE,165,0.0,2.0,33,16.25,,---,0.00,VWS V14.01,2013-04-27 20:18:00,
2013-04-27 16:23:00,71.1,40.6,30.13,SSE,155,1.0,6.0,33,16.25,,---,0.00,VWS V14.01,2013-04-27 20:23:00,
2013-04-27 16:28:00,70.7,40.2,30.13,SE,142,3.0,4.0,33,16.25,,---,0.00,VWS V14.01,2013-04-27 20:28:00,
2013-04-27 16:33:00,70.9,41.2,30.12,ESE,109,0.0,2.0,34,16.25,,---,0.00,VWS V14.01,2013-04-27 20:33:00,
2013-04-27 16:38:00,71.2,41.4,30.12,SSW,200,2.0,4.0,34,16.25,,---,0.00,VWS V14.01,2013-04-27 20:38:00,
2013-04-27 16:43:00,71.6,40.2,30.12,ESE,105,3.0,3.0,32,16.25,,---,0.00,VWS V14.01,2013-04-27 20:43:00,
2013-04-27 16:48:00,71.6,40.2,30.12,ESE,105,5.0,5.0,32,16.25,,---,0.00,VWS V14.01,2013-04-27 20:48:00,
2013-04-27 16:53:00,72.0,39.7,30.12,SW,219,0.0,1.0,31,16.25,,---,0.00,VWS V14.01,2013-04-27 20:53:00,
2013-04-27 16:58:00,71.9,38.8,30.11,SSE,156,1.0,11.0,30,16.25,,---,0.00,VWS V14.01,2013-04-27 20:58:00,
2013-04-27 17:03:00,72.0,40.6,30.11,SW,215,8.0,10.0,32,16.25,,---,0.00,VWS V14.01,2013-04-27 21:03:00,
2013-04-27 17:08:00,71.8,40.4,30.11,SW,228,2.0,2.0,32,16.25,,---,0.00,VWS V14.01,2013-04-27 21:08:00,
2013-04-27 17:13:00,72.0,40.6,30.10,South,180,0.0,4.0,32,16.25,,---,0.00,VWS V14.01,2013-04-27 21:13:00,
2013-04-27 17:18:00,72.2,39.9,30.10,ESE,119,1.0,8.0,31,16.25,,---,0.00,VWS V14.01,2013-04-27 21:18:00,
2013-04-27 17:23:00,71.8,38.7,30.10,SW,233,2.0,3.0,30,16.25,,---,0.00,VWS V14.01,2013-04-27 21:23:00,
2013-04-27 17:28:00,72.0,41.3,30.10,ESE,113,2.0,5.0,33,16.25,,---,0.00,VWS V14.01,2013-04-27 21:28:00,
2013-04-27 17:33:00,72.2,41.5,30.10,SE,144,2.0,4.0,33,16.25,,---,0.00,VWS V14.01,2013-04-27 21:33:00,
2013-04-27 17:38:00,72.0,41.3,30.09,SW,228,0.0,5.0,33,16.25,,---,0.00,VWS V14.01,2013-04-27 21:38:00,
2013-04-27 17:43:00,72.6,39.4,30.09,SSE,157,1.0,3.0,30,16.25,,---,0.00,VWS V14.01,2013-04-27 21:43:00,
2013-04-27 17:48:00,72.8,38.7,30.09,SSW,211,1.0,2.0,29,16.25,,---,0.00,VWS V14.01,2013-04-27 21:48:00,
2013-04-27 17:53:00,72.8,39.6,30.09,SW,228,7.0,8.0,30,16.25,,---,0.00,VWS V14.01,2013-04-27 21:53:00,
2013-04-27 17:58:00,72.4,37.5,30.09,SE,131,3.0,6.0,28,16.25,,---,0.00,VWS V14.01,2013-04-27 21:58:00,
2013-04-27 18:03:00,72.1,37.2,30.09,South,184,2.0,4.0,28,16.25,,---,0.00,VWS V14.01,2013-04-27 22:03:00,
2013-04-27 18:08:00,72.3,37.4,30.09,SW,236,1.0,2.0,28,16.25,,---,0.00,VWS V14.01,2013-04-27 22:08:00,
2013-04-27 18:13:00,72.4,35.6,30.09,WSW,253,5.0,5.0,26,16.25,,---,0.00,VWS V14.01,2013-04-27 22:13:00,
2013-04-27 18:18:00,71.8,34.1,30.09,SE,139,1.0,2.0,25,16.25,,---,0.00,VWS V14.01,2013-04-27 22:18:00,
2013-04-27 18:23:00,71.9,35.2,30.08,ESE,119,2.0,3.0,26,16.25,,---,0.00,VWS V14.01,2013-04-27 22:23:00,
2013-04-27 18:28:00,71.8,36.0,30.08,ESE,113,2.0,4.0,27,16.25,,---,0.00,VWS V14.01,2013-04-27 22:28:00,
2013-04-27 18:33:00,71.3,34.7,30.08,ESE,111,1.0,5.0,26,16.25,,---,0.00,VWS V14.01,2013-04-27 22:33:00,
2013-04-27 18:38:00,71.6,34.9,30.08,ENE,77,1.0,2.0,26,16.25,,---,0.00,VWS V14.01,2013-04-27 22:38:00,
2013-04-27 18:43:00,71.4,35.7,30.08,SW,217,0.0,3.0,27,16.25,,---,0.00,VWS V14.01,2013-04-27 22:43:00,
2013-04-27 18:48:00,71.5,35.8,30.08,SW,221,2.0,2.0,27,16.25,,---,0.00,VWS V14.01,2013-04-27 22:48:00,
2013-04-27 18:53:00,71.4,34.8,30.08,SE,139,1.0,4.0,26,16.25,,---,0.00,VWS V14.01,2013-04-27 22:53:00,
2013-04-27 18:58:00,71.4,34.8,30.08,SSW,208,1.0,2.0,26,16.25,,---,0.00,VWS V14.01,2013-04-27 22:58:00,
2013-04-27 19:03:00,71.0,35.4,30.08,SSE,152,2.0,4.0,27,16.25,,---,0.00,VWS V14.01,2013-04-27 23:03:00,
2013-04-27 19:08:00,70.4,34.9,30.08,SE,134,0.0,3.0,27,16.25,,---,0.00,VWS V14.01,2013-04-27 23:08:00,
2013-04-27 19:13:00,70.1,34.6,30.08,South,180,0.0,1.0,27,16.25,,---,0.00,VWS V14.01,2013-04-27 23:13:00,
2013-04-27 19:18:00,69.8,34.3,30.07,ESE,110,0.0,6.0,27,16.25,,---,0.00,VWS V14.01,2013-04-27 23:18:00,
2013-04-27 19:23:00,69.3,34.8,30.07,WSW,239,0.0,4.0,28,16.25,,---,0.00,VWS V14.01,2013-04-27 23:23:00,
2013-04-27 19:28:00,69.1,34.7,30.07,WSW,242,0.0,2.0,28,16.25,,---,0.00,VWS V14.01,2013-04-27 23:28:00,
2013-04-27 19:33:00,69.0,34.6,30.07,SSE,148,0.0,0.0,28,16.25,,---,0.00,VWS V14.01,2013-04-27 23:33:00,
2013-04-27 19:38:00,68.8,35.3,30.07,SW,226,0.0,2.0,29,16.25,,---,0.00,VWS V14.01,2013-04-27 23:38:00,
2013-04-27 19:43:00,68.3,35.7,30.07,SE,129,1.0,2.0,30,16.25,,---,0.00,VWS V14.01,2013-04-27 23:43:00,
2013-04-27 19:48:00,67.7,35.2,30.07,ESE,121,1.0,1.0,30,16.25,,---,0.00,VWS V14.01,2013-04-27 23:48:00,
2013-04-27 19:53:00,67.4,35.7,30.07,West,260,0.0,2.0,31,16.25,,---,0.00,VWS V14.01,2013-04-27 23:53:00,
2013-04-27 19:58:00,67.1,36.3,30.07,SSE,159,0.0,0.0,32,16.25,,---,0.00,VWS V14.01,2013-04-27 23:58:00,
2013-04-27 20:03:00,66.6,36.6,30.07,East,81,0.0,1.0,33,16.25,,---,0.00,VWS V14.01,2013-04-28 00:03:00,
2013-04-27 20:08:00,66.0,36.1,30.07,SW,225,0.0,2.0,33,16.25,,---,0.00,VWS V14.01,2013-04-28 00:08:00,
2013-04-27 20:13:00,65.5,36.4,30.07,SW,228,0.0,1.0,34,16.25,,---,0.00,VWS V14.01,2013-04-28 00:13:00,
2013-04-27 20:18:00,65.0,36.7,30.07,SE,131,1.0,1.0,35,16.25,,---,0.00,VWS V14.01,2013-04-28 00:18:00,
2013-04-27 20:23:00,64.6,37.1,30.07,ESE,119,0.0,1.0,36,16.25,,---,0.00,VWS V14.01,2013-04-28 00:23:00,
2013-04-27 20:28:00,64.3,36.8,30.07,ESE,122,0.0,2.0,36,16.25,,---,0.00,VWS V14.01,2013-04-28 00:28:00,
2013-04-27 20:33:00,63.8,36.4,30.07,ESE,111,0.0,0.0,36,16.25,,---,0.00,VWS V14.01,2013-04-28 00:33:00,
2013-04-27 20:38:00,63.4,36.7,30.07,ESE,120,0.0,1.0,37,16.25,,---,0.00,VWS V14.01,2013-04-28 00:38:00,
2013-04-27 20:43:00,63.0,37.0,30.07,East,101,0.0,0.0,38,16.25,,---,0.00,VWS V14.01,2013-04-28 00:43:00,
2013-04-27 20:48:00,62.6,36.7,30.07,ESE,108,0.0,0.0,38,16.25,,---,0.00,VWS V14.01,2013-04-28 00:48:00,
2013-04-27 20:53:00,62.1,36.9,30.07,SE,141,0.0,1.0,39,16.25,,---,0.00,VWS V14.01,2013-04-28 00:53:00,
2013-04-27 20:58:00,61.6,37.1,30.07,SE,140,0.0,0.0,40,16.25,,---,0.00,VWS V14.01,2013-04-28 00:58:00,
2013-04-27 21:03:00,61.2,37.3,30.07,SE,139,0.0,0.0,41,16.25,,---,0.00,VWS V14.01,2013-04-28 01:03:00,
2013-04-27 21:08:00,60.9,37.1,30.07,ESE,119,0.0,0.0,41,16.25,,---,0.00,VWS V14.01,2013-04-28 01:08:00,
2013-04-27 21:12:00,60.6,37.4,30.07,ESE,119,0.0,0.0,42,16.25,,---,0.00,VWS V14.01,2013-04-28 01:12:00,
2013-04-27 21:18:00,60.3,37.1,30.07,ESE,118,0.0,0.0,42,16.25,,---,0.00,VWS V14.01,2013-04-28 01:18:00,
2013-04-27 21:23:00,60.2,37.6,30.07,ESE,119,0.0,0.0,43,16.25,,---,0.00,VWS V14.01,2013-04-28 01:23:00,
2013-04-27 21:27:00,60.2,37.6,30.07,ESE,119,0.0,0.0,43,16.25,,---,0.00,VWS V14.01,2013-04-28 01:27:00,
2013-04-27 21:32:00,60.1,37.5,30.07,SE,129,0.0,0.0,43,16.25,,---,0.00,VWS V14.01,2013-04-28 01:32:00,
2013-04-27 21:37:00,59.8,37.3,30.07,SE,129,0.0,0.0,43,16.25,,---,0.00,VWS V14.01,2013-04-28 01:37:00,
2013-04-27 21:38:00,59.8,37.3,30.07,SE,129,0.0,0.0,43,16.25,,---,0.00,VWS V14.01,2013-04-28 01:38:00,
2013-04-27 21:43:00,59.6,37.7,30.07,SE,130,0.0,0.0,44,16.25,,---,0.00,VWS V14.01,2013-04-28 01:43:00,
2013-04-27 21:48:00,59.3,37.4,30.06,SE,129,0.0,0.0,44,16.25,,---,0.00,VWS V14.01,2013-04-28 01:48:00,
2013-04-27 21:53:00,59.0,37.7,30.06,SE,130,0.0,0.0,45,16.25,,---,0.00,VWS V14.01,2013-04-28 01:53:00,
2013-04-27 21:57:00,58.6,37.3,30.06,SE,129,0.0,0.0,45,16.25,,---,0.00,VWS V14.01,2013-04-28 01:57:00,
2013-04-27 22:02:00,58.1,37.5,30.06,SE,129,0.0,0.0,46,16.25,,---,0.00,VWS V14.01,2013-04-28 02:02:00,
2013-04-27 22:07:00,57.4,37.9,30.06,SE,129,0.0,0.0,48,16.25,,---,0.00,VWS V14.01,2013-04-28 02:07:00,
2013-04-27 22:12:00,56.6,39.2,30.06,SE,129,0.0,0.0,52,16.25,,---,0.00,VWS V14.01,2013-04-28 02:12:00,
2013-04-27 22:17:00,56.0,39.1,30.06,SE,129,0.0,0.0,53,16.25,,---,0.00,VWS V14.01,2013-04-28 02:17:00,
2013-04-27 22:22:00,55.5,39.1,30.06,SE,130,0.0,0.0,54,16.25,,---,0.00,VWS V14.01,2013-04-28 02:22:00,
2013-04-27 22:27:00,55.0,39.2,30.06,SE,130,0.0,0.0,55,16.25,,---,0.00,VWS V14.01,2013-04-28 02:27:00,
2013-04-27 22:32:00,54.5,39.6,30.06,SE,130,0.0,0.0,57,16.25,,---,0.00,VWS V14.01,2013-04-28 02:32:00,
2013-04-27 22:37:00,54.0,39.6,30.06,SE,129,0.0,0.0,58,16.25,,---,0.00,VWS V14.01,2013-04-28 02:37:00,
2013-04-27 22:42:00,53.5,39.5,30.06,SE,129,0.0,0.0,59,16.25,,---,0.00,VWS V14.01,2013-04-28 02:42:00,
2013-04-27 22:47:00,53.2,39.3,30.06,SE,129,0.0,0.0,59,16.25,,---,0.00,VWS V14.01,2013-04-28 02:47:00,
2013-04-27 22:52:00,52.8,39.3,30.06,SE,129,0.0,0.0,60,16.25,,---,0.00,VWS V14.01,2013-04-28 02:52:00,
2013-04-27 22:57:00,52.4,39.8,30.05,SE,129,0.0,0.0,62,16.25,,---,0.00,VWS V14.01,2013-04-28 02:57:00,
2013-04-27 23:02:00,52.0,39.8,30.05,SE,130,0.0,0.0,63,16.25,,---,0.00,VWS V14.01,2013-04-28 03:02:00,
2013-04-27 23:07:00,51.5,39.3,30.05,SE,129,0.0,0.0,63,16.25,,---,0.00,VWS V14.01,2013-04-28 03:07:00,
2013-04-27 23:12:00,51.0,38.9,30.05,SE,129,0.0,0.0,63,16.25,,---,0.00,VWS V14.01,2013-04-28 03:12:00,
2013-04-27 23:17:00,50.5,40.3,30.05,SE,130,0.0,0.0,68,16.25,,---,0.00,VWS V14.01,2013-04-28 03:17:00,
2013-04-27 23:22:00,50.3,39.4,30.05,SE,130,0.0,0.0,66,16.25,,---,0.00,VWS V14.01,2013-04-28 03:22:00,
2013-04-27 23:27:00,50.1,39.2,30.05,SE,129,0.0,0.0,66,16.25,,---,0.00,VWS V14.01,2013-04-28 03:27:00,
2013-04-27 23:32:00,50.0,39.9,30.05,ESE,110,0.0,0.0,68,16.25,,---,0.00,VWS V14.01,2013-04-28 03:32:00,
2013-04-27 23:37:00,50.0,41.3,30.05,ESE,110,0.0,0.0,72,16.25,,---,0.00,VWS V14.01,2013-04-28 03:37:00,
2013-04-27 23:42:00,50.1,41.1,30.05,ESE,110,0.0,0.0,71,16.25,,---,0.00,VWS V14.01,2013-04-28 03:42:00,
2013-04-27 23:47:00,49.9,40.5,30.05,ESE,110,0.0,0.0,70,16.25,,---,0.00,VWS V14.01,2013-04-28 03:47:00,
2013-04-27 23:52:00,49.8,40.4,30.04,ESE,110,0.0,0.0,70,16.25,,---,0.00,VWS V14.01,2013-04-28 03:52:00,
2013-04-27 23:57:00,49.7,40.0,30.04,ESE,110,0.0,0.0,69,16.25,,---,0.00,VWS V14.01,2013-04-28 03:57:00,